Location: Carrières
(48.9495°N, 2.0407°E)
Time: 14:07:03
(UTC+00:00)

CZ-4 R/B - Pass Details

Date: 28 January 2023
Orbit: 525 x 587 km, 97.7° (Epoch: 21 March)

Event Time Altitude Azimuth Distance (km) Brightness Sun altitude
Rises 19:48:34 0° 198° (SSW) 2,811 5.1 -30.5°
Reaches altitude 10° 19:51:04 10° 212° (SSW) 1,913 4.3 -30.9°
Maximum altitude 19:54:26 23° 267° (W) 1,251 3.7 -31.4°
Drops below altitude 10° 19:57:47 10° 321° (NW) 1,909 4.6 -32.0°
Sets 20:00:18 0° 335° (NNW) 2,804 5.3 -32.4°
